GEFSSE_con_prob3kmehi_252.txt.gz
EHI
0 1 1 1 0 0 0 0 0 0 0 0 0 0 0 0 1 2 1 0 0 0 0 0 1 2 1 0 0 0 1 2 2 4 7 7 6 5 4 4 3 2 2
0 0 0 0 0 0 0 0 0 0 0 0 0 0 0 0 1 1 1 0 0 0 0 0 1 2 1 1 1 0 1 2 2 4 5 5 4 4 4 4 3 2 2
0 0 0 0 0 1 0 0 0 0 0 0 0 0 0 0 0 0 0 0 0 0 0 0 1 2 2 2 2 1 1 2 2 3 4 2 1 2 3 3 3 1 1
0 0 0 0 0 0 0 0 0 0 0 0 0 0 0 0 0 0 0 0 0 0 0 0 1 2 3 3 3 2 1 1 1 1 2 1 0 1 1 2 2 1 0
0 0 0 0 0 0 0 0 0 0 0 0 0 0 0 0 0 0 0 0 0 0 0 0 2 3 3 3 2 1 1 1 0 0 0 0 0 0 0 1 1 0 0
0 0 0 0 0 0 0 0 1 0 0 0 0 0 0 0 0 0 0 0 0 0 0 0 1 2 2 1 1 0 1 1 1 0 0 0 0 0 0 0 0 0 0
0 0 0 0 0 0 0 0 1 0 0 0 0 0 0 0 0 0 1 0 0 0 0 0 1 1 1 0 0 0 1 1 1 0 0 0 0 0 0 0 0 0 0
0 0 1 1 1 0 0 0 1 0 0 0 0 0 0 0 0 0 0 0 0 0 0 0 0 0 0 0 0 0 0 0 0 0 0 0 0 0 0 0 0 0 0
0 1 2 2 1 0 0 0 0 0 0 0 0 0 0 0 0 0 0 0 0 0 1 0 0 0 0 0 0 0 0 0 0 0 0 0 0 0 0 0 1 1 1
0 1 2 3 2 2 1 0 0 0 1 0 0 0 0 0 0 0 0 0 0 0 0 0 0 0 0 0 0 0 0 0 0 0 0 0 0 0 0 0 1 2 2
0 1 2 3 4 3 2 0 0 0 0 0 0 0 0 0 0 0 0 0 0 0 0 0 0 0 0 0 0 0 0 0 0 0 0 0 0 0 0 0 0 1 2
0 0 1 3 3 3 2 1 0 0 0 0 0 0 0 0 0 0 0 0 0 0 0 0 0 0 0 0 0 0 0 0 0 0 0 0 0 0 0 0 0 0 1
0 0 1 2 3 3 2 1 0 0 0 0 0 0 0 0 0 0 0 0 0 0 0 0 0 0 0 0 0 0 0 0 1 0 0 0 0 0 0 1 1 1 0
0 0 0 1 3 3 3 1 0 0 0 0 0 0 0 0 0 0 1 1 0 0 0 0 1 0 0 0 0 0 0 0 0 0 0 0 0 0 0 1 2 2 1
0 0 0 1 3 4 3 2 0 0 0 0 0 0 0 0 0 0 1 1 0 0 0 0 0 0 0 0 0 0 0 0 0 0 0 1 0 0 0 0 2 3 2
1 1 2 2 3 4 3 2 0 0 0 0 0 0 0 0 0 0 1 1 0 0 0 0 0 0 0 0 0 0 0 0 0 0 0 0 0 1 1 1 1 2 1
1 3 3 3 4 4 2 1 0 0 1 0 0 0 0 0 0 0 0 0 0 0 0 0 0 0 0 0 0 0 0 0 0 0 0 0 0 1 2 1 1 0 0
3 5 5 4 5 5 3 1 0 0 0 0 0 0 0 0 0 1 1 1 0 1 0 0 1 1 1 1 1 0 1 2 1 0 0 0 1 1 2 2 1 1 0
6 7 6 6 6 5 3 1 0 0 0 0 0 0 0 0 0 2 2 1 0 0 0 1 2 4 3 2 2 1 2 3 2 1 0 0 1 1 2 3 2 1 1
9 9 8 7 6 5 3 2 1 0 0 0 0 0 0 0 0 1 2 2 0 0 1 1 3 4 4 4 3 1 1 2 2 1 1 0 0 0 1 2 2 1 1
12 12 11 9 7 7 6 4 2 1 0 0 0 0 0 0 0 1 2 2 1 1 2 3 3 4 4 5 4 2 0 1 2 2 2 1 0 0 0 1 2 3 3
15 14 14 12 10 10 9 6 3 1 0 0 0 0 0 0 0 0 1 2 3 3 3 3 4 4 4 5 5 3 1 1 2 2 2 2 1 1 0 1 3 5 5
16 16 15 15 13 12 10 7 4 3 1 0 0 0 0 0 0 0 1 2 4 4 4 3 3 4 4 5 5 3 1 1 1 1 1 1 2 2 2 2 3 4 4
15 15 17 17 14 12 10 8 5 4 2 1 0 0 0 0 0 0 1 2 3 4 4 3 2 3 3 4 3 3 1 1 1 1 1 1 3 3 3 2 2 2 2
13 14 16 17 15 12 11 8 5 4 3 2 0 0 0 0 0 0 0 1 2 3 3 3 3 3 3 2 2 2 2 2 1 1 1 2 3 3 3 3 3 3 3
13 14 16 17 15 12 10 8 5 3 3 3 1 0 1 1 1 0 0 0 1 3 3 4 4 4 3 2 2 3 3 3 2 1 0 1 3 3 3 3 3 3 3

GEFSSE_con_prob3kmehi_258.txt.gz
EHI
2 1 1 2 1 0 0 0 1 1 1 0 0 0 0 0 0 0 0 0 1 2 1 0 0 0 1 1 2 2 2 2 1 1 2 1 0 1 2 1 0 1 3
3 1 1 2 1 0 0 1 2 1 0 0 0 0 0 0 0 0 0 0 1 2 1 0 0 1 1 1 1 1 2 2 1 2 2 1 1 2 2 1 1 2 3
3 1 0 1 1 0 0 1 2 1 0 0 0 0 0 0 0 0 0 0 1 2 1 1 1 2 2 1 0 1 2 2 1 2 2 1 1 2 2 1 1 2 3
3 2 1 0 0 0 0 1 1 0 1 1 1 1 0 0 0 0 0 0 1 2 2 1 2 3 2 1 0 1 2 1 1 2 2 0 0 1 1 0 1 2 3
3 3 2 0 0 1 0 0 0 1 2 2 2 1 0 0 0 0 0 0 1 2 2 1 1 2 2 1 0 1 1 1 2 2 1 1 0 0 0 0 1 2 3
4 3 2 1 0 0 0 0 0 1 2 2 2 1 0 0 0 0 0 0 1 1 1 1 0 1 1 1 0 0 0 1 2 1 1 1 2 1 0 0 1 1 1
4 3 3 2 1 1 1 1 0 0 1 1 1 0 0 0 0 0 0 0 1 1 1 1 1 0 0 0 0 0 0 1 1 1 1 2 3 1 0 0 0 0 0
4 4 4 4 3 3 3 2 1 0 1 2 2 1 0 0 0 0 0 0 0 1 1 1 1 0 0 0 0 0 1 2 2 1 1 2 2 1 0 0 0 0 0
3 3 3 3 4 5 4 3 1 1 3 5 5 3 2 1 0 0 0 0 0 0 0 1 1 0 0 0 0 1 3 5 4 1 0 2 3 2 0 0 0 0 0
1 2 3 4 4 5 4 4 4 3 3 4 5 4 2 1 0 0 0 0 0 0 0 0 0 0 0 0 0 2 4 4 2 1 1 4 5 3 1 1 1 0 0
2 2 3 4 4 3 4 5 6 4 3 3 3 3 2 1 1 0 0 1 1 1 1 1 1 1 1 2 2 2 2 1 0 0 2 6 8 6 3 2 1 0 0
3 3 3 4 3 2 2 4 4 3 3 2 3 4 3 2 1 0 1 3 3 3 3 3 2 2 2 2 2 2 2 1 0 0 4 10 13 10 6 2 1 0 0
2 2 2 3 3 3 2 1 1 2 3 3 4 6 5 3 1 1 2 4 4 4 4 4 4 2 1 1 1 1 1 1 0 1 6 15 17 14 9 4 1 0 0
2 1 1 2 4 5 4 2 1 1 2 3 4 6 5 2 2 3 3 3 4 4 4 4 4 2 1 0 0 0 0 0 1 2 8 16 18 15 12 8 3 1 1
4 2 1 2 5 8 9 7 3 1 1 1 3 5 5 4 3 3 3 3 2 2 3 4 2 2 1 1 0 0 0 0 1 2 7 13 15 14 14 11 6 4 3
5 3 2 4 8 11 12 10 5 2 2 2 3 5 5 5 6 6 5 3 3 3 4 3 2 1 2 1 1 2 2 2 3 3 5 9 12 12 12 11 7 5 6
8 6 4 7 11 13 13 10 6 3 3 4 5 6 6 5 7 8 6 4 4 5 6 4 3 2 2 2 2 4 4 5 6 5 4 6 7 8 9 9 7 7 9
12 10 8 10 14 15 13 10 6 5 6 6 6 6 6 5 6 7 6 5 5 6 7 5 3 3 3 3 5 6 6 6 6 5 4 4 5 6 7 8 8 9 11
16 15 13 13 15 16 13 10 8 8 9 7 6 6 7 6 5 5 5 5 5 6 6 4 4 4 5 5 5 5 5 4 5 5 4 4 5 6 7 8 9 11 12
25 24 20 17 17 17 16 14 11 9 8 8 8 8 8 6 5 5 5 5 5 5 5 4 5 6 6 5 5 5 4 4 5 6 5 5 6 7 7 8 9 10 11
33 32 28 22 21 20 19 18 14 9 8 10 11 11 8 5 5 6 6 5 5 6 7 6 6 7 7 6 5 5 4 5 6 6 6 6 6 6 6 6 9 10 11
37 37 33 27 24 21 20 18 13 9 8 10 13 13 9 5 5 7 6 6 5 7 9 7 6 6 6 5 5 4 3 4 5 5 6 7 6 6 5 5 7 9 10
39 37 34 32 28 20 17 15 12 8 7 8 14 16 12 9 8 8 7 7 7 8 9 9 8 7 6 6 4 3 2 2 3 4 5 6 7 6 5 3 4 7 8
38 36 38 38 31 19 13 12 10 8 6 7 13 17 17 15 13 11 10 10 10 9 9 10 9 8 8 6 5 3 2 3 4 4 5 6 7 6 4 2 4 7 8
34 35 40 41 33 20 12 10 9 8 7 8 11 14 18 20 18 15 13 13 12 11 10 10 9 9 8 6 5 3 2 4 5 5 5 5 6 6 4 3 5 7 7
31 33 39 41 36 24 14 9 9 8 7 7 9 12 17 21 20 17 14 12 12 12 11 10 9 9 8 6 5 4 2 3 4 4 4 5 6 6 5 5 5 6 5

GEFSSE_con_prob3kmehi_264.txt.gz
EHI
3 5 7 9 8 7 7 6 4 6 7 7 7 9 10 9 6 5 4 3 3 4 5 5 4 4 3 3 3 3 3 4 5 7 9 10 11 10 8 7 7 6 6
4 6 9 9 8 7 6 4 4 4 5 5 6 8 7 6 5 4 4 4 4 4 5 5 5 4 4 4 4 4 4 5 6 7 9 9 10 10 8 7 6 6 5
5 6 8 8 7 6 5 4 3 3 4 4 5 6 5 4 3 4 5 5 4 5 4 5 6 5 4 4 4 5 6 6 6 7 7 6 7 8 7 6 6 5 5
4 5 7 7 7 6 5 4 3 3 4 4 5 4 4 3 3 4 5 5 5 5 4 4 6 6 5 4 4 5 6 6 6 4 3 3 5 6 5 4 5 5 4
4 4 6 8 7 6 4 3 3 3 3 4 4 3 3 3 4 5 5 4 5 5 4 4 6 8 7 6 5 5 5 5 5 2 1 2 4 4 4 4 5 4 4
5 5 7 8 8 6 4 3 3 3 3 3 3 3 3 4 4 4 4 4 4 6 6 5 5 7 9 10 9 7 6 5 3 1 1 2 4 4 4 5 5 4 3
6 6 7 9 9 7 4 3 3 3 3 3 3 3 4 4 4 3 3 3 4 6 7 6 4 6 9 11 11 9 7 5 2 0 0 2 4 5 6 6 5 4 3
6 6 7 8 9 9 6 4 3 3 3 3 3 4 4 4 3 3 4 3 3 5 7 5 4 5 8 10 11 10 8 6 2 0 0 1 4 6 8 8 6 3 2
6 6 6 6 7 8 7 5 4 3 3 3 3 4 5 4 3 4 4 4 3 4 4 3 3 5 8 9 9 9 9 6 2 0 0 1 4 8 10 9 7 3 1
5 5 5 4 4 5 5 4 4 4 3 3 4 4 5 4 3 3 4 4 4 5 4 2 2 4 6 6 6 7 7 4 1 0 0 3 7 9 10 10 7 4 1
4 4 4 3 3 3 3 4 4 4 3 4 4 5 4 3 3 3 3 5 6 6 5 3 3 4 5 4 3 4 4 2 0 0 1 5 9 10 9 10 8 5 3
4 4 4 4 3 3 3 4 4 4 3 3 3 3 3 3 3 3 4 5 6 6 5 4 4 4 3 1 1 2 2 1 0 0 2 8 12 12 11 11 10 7 5
4 5 6 5 3 3 3 3 4 3 3 2 1 1 1 3 3 3 3 3 3 3 3 3 3 2 1 0 0 1 1 0 0 0 3 10 16 16 15 14 12 9 7
2 5 6 6 5 4 3 3 4 4 3 2 1 0 1 2 2 1 1 1 1 1 1 2 1 1 0 0 0 0 0 0 0 0 2 9 17 19 18 16 14 11 10
3 5 6 6 6 4 3 4 5 4 4 3 2 1 1 1 1 1 1 2 1 1 2 2 2 1 1 1 0 0 0 0 0 0 2 7 14 17 17 15 13 11 11
6 6 6 7 6 5 5 5 5 4 3 3 2 2 2 2 2 2 2 3 3 3 3 3 2 2 2 1 0 0 1 1 1 1 2 5 9 13 15 15 12 10 10
6 7 7 8 8 6 6 7 6 4 3 3 1 1 2 2 2 2 2 2 3 3 3 2 1 1 1 1 0 0 1 1 1 2 2 4 5 8 12 14 13 11 10
7 8 9 9 8 7 7 7 7 5 3 2 1 0 1 1 2 2 1 2 3 3 2 1 0 0 0 0 0 0 0 1 1 1 2 2 2 4 7 10 11 10 9
10 11 11 10 8 6 5 5 4 3 2 1 0 0 0 1 2 2 2 2 2 1 1 0 0 0 0 0 0 0 0 0 0 0 1 1 0 1 2 4 6 7 7
12 13 13 10 7 5 4 3 1 1 1 0 1 1 1 2 2 1 1 1 1 1 1 0 1 1 0 0 0 0 0 0 0 0 0 0 0 0 0 1 2 3 4
14 14 13 10 7 5 5 3 1 0 0 1 2 2 3 2 1 0 0 0 0 1 1 1 2 2 1 0 0 0 0 0 0 0 0 0 0 0 0 0 0 1 1
17 15 12 9 8 7 7 6 4 2 1 2 3 3 2 2 1 0 0 0 0 1 1 2 2 2 1 0 0 0 0 0 0 0 0 0 0 0 0 0 0 0 0
19 16 12 11 11 9 8 7 7 4 3 3 3 1 1 1 0 0 1 0 0 0 0 1 1 1 0 0 0 0 0 0 0 0 0 0 0 0 0 0 0 0 0
22 18 14 13 12 10 9 9 8 5 4 3 2 1 0 1 1 1 1 0 0 0 0 1 0 0 0 0 0 0 0 0 0 0 0 0 0 0 0 0 0 0 0
24 22 19 15 12 10 10 9 7 5 3 3 2 1 0 1 2 3 2 1 1 0 1 1 0 0 0 0 0 0 0 0 0 0 0 0 0 0 0 0 0 0 0
25 25 22 17 12 10 10 9 7 5 3 3 1 0 0 1 3 4 3 2 2 1 1 1 0 0 0 0 0 0 0 0 0 0 0 0 0 0 0 0 0 0 0

GEFSSE_con_prob3kmehi_270.txt.gz
EHI
0 0 1 1 1 1 2 5 5 3 1 1 1 1 0 0 0 0 0 0 1 2 2 1 0 0 1 0 0 0 0 0 1 1 2 3 3 3 1 0 0 0 0
0 0 1 1 1 2 2 4 4 3 2 1 1 1 1 1 0 0 0 0 0 1 1 0 0 0 1 1 0 0 0 1 1 1 1 2 3 3 2 1 1 1 1
0 0 0 0 1 1 1 1 1 2 1 1 2 2 2 1 0 0 0 0 0 0 0 0 0 0 1 1 1 2 1 1 1 1 1 1 1 2 1 1 2 2 2
0 0 0 0 0 0 0 0 0 0 1 2 3 3 2 1 0 0 0 0 0 0 0 0 0 0 0 1 2 3 2 1 1 0 0 0 0 0 0 1 2 3 3
0 0 0 0 0 0 0 0 0 0 0 1 2 2 1 0 0 0 0 0 0 0 0 0 0 0 0 1 2 3 3 2 1 0 0 0 0 0 0 1 2 3 3
0 0 0 0 0 0 0 0 0 0 0 0 1 1 0 0 0 1 0 0 0 0 0 1 1 0 0 2 3 3 3 3 2 0 0 0 0 0 0 1 2 3 3
0 0 1 1 2 1 1 0 0 0 0 0 0 0 0 0 0 1 0 0 0 0 0 1 1 1 2 4 4 3 3 3 1 0 0 0 0 0 0 0 1 3 3
0 0 1 2 2 2 1 1 1 0 0 0 0 0 0 0 0 1 0 0 0 0 0 1 1 1 2 5 5 4 3 2 1 0 0 0 0 0 0 0 1 2 3
0 0 0 1 1 1 1 2 1 0 0 0 0 0 0 0 0 0 0 0 0 1 0 0 1 1 2 4 5 5 4 2 1 0 0 0 0 0 0 0 0 1 2
0 0 0 0 0 0 0 1 1 0 0 0 0 0 0 0 0 0 0 0 0 0 0 0 1 1 1 3 4 4 3 2 1 0 0 0 0 0 0 0 0 0 1
0 0 0 0 0 0 0 0 0 0 0 0 0 0 0 0 0 0 0 0 0 0 0 0 0 0 1 2 2 2 2 1 0 0 0 0 0 0 0 0 0 0 0
0 0 0 0 0 0 0 0 0 0 0 0 0 0 0 0 0 0 0 0 0 0 0 0 0 0 0 1 1 0 0 0 0 0 0 0 0 0 0 0 0 0 0
1 0 0 0 0 0 0 0 0 0 0 0 0 0 0 0 0 0 0 0 0 0 0 0 0 0 0 0 0 0 0 0 0 0 0 0 1 1 1 1 1 1 0
1 1 1 1 0 0 0 0 0 0 0 0 0 0 0 0 0 0 0 0 0 0 0 0 0 0 0 0 0 0 0 0 0 0 0 1 2 3 2 2 2 2 1
1 2 2 2 1 0 0 0 0 0 0 0 0 0 0 0 0 0 0 0 0 0 0 0 0 0 0 0 0 0 0 0 0 0 0 0 2 4 4 3 4 4 3
1 2 3 2 1 0 0 0 0 0 0 0 0 0 0 0 0 0 0 0 0 0 0 0 0 0 0 0 0 0 0 0 0 0 0 0 1 4 5 4 5 5 4
2 3 3 3 1 1 1 0 0 0 0 0 0 0 0 0 0 0 0 0 0 0 0 0 0 0 0 0 0 0 0 0 0 0 0 0 1 2 3 3 4 4 4
4 4 4 4 3 2 1 0 0 0 0 0 0 0 0 0 0 0 0 0 0 0 0 0 0 0 0 0 0 0 0 0 0 0 0 0 0 1 1 2 2 3 3
6 6 5 4 2 1 1 0 0 0 0 0 0 0 0 0 0 0 0 0 0 0 0 0 0 0 0 1 0 0 0 0 0 0 0 0 0 0 0 0 1 1 2
6 5 4 2 1 1 0 0 0 0 0 0 0 0 0 0 0 0 0 0 0 0 0 0 0 0 0 0 0 0 0 0 0 0 0 0 0 0 0 0 0 0 1
4 3 1 1 2 2 1 0 0 0 0 0 0 0 0 0 0 0 0 0 0 0 0 0 0 0 0 0 0 0 0 0 0 0 0 0 0 0 0 0 0 0 0
3 1 0 1 2 3 1 0 0 0 0 0 0 0 0 0 0 0 0 0 0 0 0 0 0 0 0 0 0 0 0 0 0 0 0 0 0 0 0 0 0 0 0
2 1 0 1 2 3 2 1 0 0 0 0 0 0 0 0 0 0 0 0 0 0 0 0 0 0 0 0 0 0 0 0 0 0 0 0 0 0 0 0 0 0 0
3 2 1 1 2 3 3 1 1 1 0 0 0 0 0 0 0 0 0 0 0 0 0 0 0 0 0 0 0 0 0 0 0 0 0 0 0 0 0 0 0 0 0
3 2 1 1 3 3 3 3 3 2 1 0 0 0 0 0 0 0 0 0 0 0 0 0 0 0 0 0 0 0 0 0 0 0 0 0 0 0 0 0 0 0 0
3 2 1 2 3 3 4 4 4 2 1 0 0 0 0 0 0 0 0 0 0 0 0 0 0 0 0 0 0 0 0 0 0 0 0 0 0 0 0 0 0 0 0